Weather History for Winfield, KS

Change the Weather History Date:

Friday, December 21, 2012

  Actual Average Record
Temperature  
Mean Temperature 36 °F -  
Max Temperature 55 °F 41 °F 63 °F (2007)
Min Temperature 17 °F 22 °F 6 °F (2008)
Degree Days  
Heating Degree Days 29    
Moisture  
Dew Point 17 °F    
Average Humidity 51    
Maximum Humidity 84    
Minimum Humidity 20    
Precipitation  
Precipitation 0.00 in - - ()
Sea Level Pressure  
Sea Level Pressure 30.30 in    
Wind  
Wind Speed 3 mph (SE)    
Max Wind Speed 10 mph    
Max Gust Speed -    
Visibility 10 miles    
Events      
Averages and records for this station are not official NWS values.
T = Trace of Precipitation, MM = Missing Value Source: NWS Daily Summary

Daily Weather History Graph

Daily Weather History Graph

Search for Another Location

Airport:

Trip Planner

Search our weather history database for the weather conditions in past years. The results will help you decide how hot, cold, wet, or windy it might be!

Date:

Astronomy

Dec. 21, 2012 Rise Set
Actual Time 7:38 AM CST 5:14 PM CST
Civil Twilight 7:09 AM CST 5:43 PM CST
Nautical Twilight 6:36 AM CST 6:16 PM CST
Astronomical Twilight 6:04 AM CST 6:48 PM CST
Moon 12:57 PM CST (12/21) 1:32 AM CST (12/21)
Length of Visible Light 10h 34m
Length of Day
9h 36m
Waxing Gibbous, 65% of the Moon is Illuminated
Dec 21
Waxing Gibbous
Dec 28
Full
Jan 4
Last Quarter
Jan 11
New
Jan 18
First Quarter

Hourly Weather History & Observations

Time (CST) Temp. Windchill Dew Point Humidity Pressure Visibility Wind Dir Wind Speed Gust Speed Precip Events Conditions
12:54 AM 21.0 °F - 15.1 °F 78% 30.36 in 10.0 mi Calm Calm - N/A   Clear
1:54 AM 17.1 °F - 12.9 °F 84% 30.36 in 10.0 mi Calm Calm - N/A   Clear
2:54 AM 21.0 °F 16.2 °F 14.0 °F 74% 30.37 in 10.0 mi SSE 3.5 mph - N/A   Clear
3:54 AM 19.9 °F 13.4 °F 12.9 °F 74% 30.36 in 10.0 mi SSW 4.6 mph - N/A   Clear
4:54 AM 21.0 °F - 14.0 °F 74% 30.35 in 10.0 mi Calm Calm - N/A   Clear
5:54 AM 19.9 °F - 14.0 °F 78% 30.35 in 10.0 mi Calm Calm - N/A   Clear
6:54 AM 19.9 °F - 14.0 °F 78% 30.36 in 10.0 mi Calm Calm - N/A   Clear
7:54 AM 21.0 °F 13.4 °F 14.0 °F 74% 30.36 in 10.0 mi East 5.8 mph - N/A   Clear
8:54 AM 26.1 °F 21.9 °F 17.1 °F 69% 30.37 in 10.0 mi East 3.5 mph - N/A   Clear
9:54 AM 33.1 °F 30.0 °F 19.9 °F 59% 30.39 in 10.0 mi South 3.5 mph - N/A   Clear
10:54 AM 42.1 °F 37.7 °F 21.0 °F 43% 30.36 in 10.0 mi SSE 6.9 mph - N/A   Clear
11:54 AM 48.0 °F - 21.0 °F 34% 30.33 in 10.0 mi SE 5.8 mph - N/A   Clear
12:54 PM 53.1 °F - 16.0 °F 23% 30.28 in 10.0 mi South 10.4 mph - N/A   Clear
1:54 PM 55.0 °F - 15.1 °F 21% 30.26 in 10.0 mi South 6.9 mph - N/A   Clear
2:54 PM 55.9 °F - 15.1 °F 20% 30.24 in 10.0 mi South 9.2 mph - N/A   Clear
3:54 PM 55.0 °F - 17.1 °F 23% 30.24 in 10.0 mi South 3.5 mph - N/A   Clear
4:54 PM 52.0 °F - 18.0 °F 26% 30.24 in 10.0 mi SE 3.5 mph - N/A   Clear
5:54 PM 48.0 °F - 17.1 °F 29% 30.24 in 10.0 mi East 3.5 mph - N/A   Clear
6:54 PM 44.1 °F 40.8 °F 19.0 °F 37% 30.26 in 10.0 mi ESE 5.8 mph - N/A   Clear
7:54 PM 41.0 °F 37.1 °F 19.0 °F 41% 30.26 in 10.0 mi ESE 5.8 mph - N/A   Clear
8:54 PM 39.0 °F 34.8 °F 19.0 °F 45% 30.25 in 10.0 mi ESE 5.8 mph - N/A   Clear
9:54 PM 36.0 °F 31.1 °F 19.0 °F 50% 30.23 in 10.0 mi East 5.8 mph - N/A   Clear
10:54 PM 37.9 °F 33.5 °F 19.0 °F 47% 30.23 in 10.0 mi ESE 5.8 mph - N/A   Clear
11:54 PM 36.0 °F 31.1 °F 19.0 °F 50% 30.20 in 10.0 mi ESE 5.8 mph - N/A   Clear